Tracking 28096 objects as of 29-Sep-2023
HD Live streaming from Space Station
objects crossing your sky now

ELEKTRON 3 DEB

Track ELEKTRON 3 DEB now!
10-day predictions


NORAD ID: 29008
Int'l Code: 1964-038G
Perigee: 408.4 km
Apogee: 5,930.4 km
Inclination: 60.8 °
Period: 154.6 minutes
Semi major axis: 9540 km
RCS: 0.0196 m2 (small)
Launch date: July 10, 1964
Source: Commonwealth of Independent States (former USSR) (CIS)
Launch site: TYURATAM MISSILE AND SPACE COMPLEX (TTMTR)

Note: This is SATELLITE DEBRIS
Your satellite tracking list
Your tracking list is empty




NASA's NSSDC Master Catalog

Two Line Element Set (TLE):
1 29008U 64038G   23271.09177881  .00004795  00000-0  11736-2 0  9991
2 29008  60.8263 111.0075 2894045 124.3336 266.6125  9.31649355639107
Source of the keplerian elements: AFSPC